Location: Unspecified
(0.0000°N, 0.0000°E)
Time: 14:51:24
(UTC+00:00)

CUTE 1.7 + AOD 2 - Pass Details

Date: 13 December 2017
Orbit: 595 x 612 km, 97.5° (Epoch: 22 July)

Event Time Altitude Azimuth Distance (km) Brightness Sun altitude
Rises 18:59:30 0° 181° (S) 2,839 ? -14.9°
Reaches altitude 10° 19:01:45 10° 187° (S) 1,937 ? -15.4°
Maximum altitude 19:05:44 43° 259° (WSW) 851 ? -16.3°
Drops below altitude 10° 19:09:43 10° 330° (NNW) 1,937 ? -17.3°
Sets 19:11:58 0° 337° (NNW) 2,839 ? -17.8°
